Language: 


Des rapports , des résumés tant et plus, au choix de chacun....


Données statistiques de la station
Quotidien Rapport Juillet 30, 2017 Unités:  Métrique    Anglais   les deux
« Précédent Jour
Suivant Jour »
Quotidien Hebdomadaire Mensuel Annuel Actuel
  Haut: Bas: Moyen:
Température: 23.8 °C 14.5 °C 20.2 °C
Pt de rosée: 19.0 °C 8.0 °C 14.4 °C
Humidité: 97 % 38 % 71 %
Vitesse du vent: 33.8 km/h 0.0 km/h 12.4 km/h
Rafales: 276.7 km/h - -
Vent:- - WSW
Pression: 1012.1 hPa 1002.9 hPa -
Précipitation: 0.3 mm    
Historical Graphs
 
 
Données statistiques pour Juillet 30, 2017
Heure Température Point de rosée Pression Vent Vitesse du vent Refales Humidité Pluie (taux horaire)
00:00 19.0 °C 18.0 °C 1007.0 hPa Calm     95 % 0.0 mm
00:05 19.0 °C 18.0 °C 1007.0 hPa Calm     95 % 0.0 mm
00:10 19.0 °C 18.0 °C 1007.0 hPa Calm     95 % 0.0 mm
00:15 19.0 °C 18.0 °C 1007.0 hPa Calm     95 % 0.0 mm
00:20 18.9 °C 18.0 °C 1007.0 hPa Calm     95 % 0.0 mm
00:25 18.9 °C 18.0 °C 1007.0 hPa Calm     95 % 0.0 mm
00:30 18.9 °C 18.0 °C 1007.0 hPa Calm     95 % 0.0 mm
00:35 18.9 °C 18.0 °C 1007.0 hPa Calm     95 % 0.0 mm
00:40 18.8 °C 18.0 °C 1007.0 hPa Calm     95 % 0.0 mm
00:45 18.7 °C 18.0 °C 1007.0 hPa Calm     95 % 0.0 mm
00:50 18.6 °C 18.0 °C 1007.0 hPa Calm     95 % 0.0 mm
00:55 18.6 °C 18.0 °C 1006.0 hPa Calm     95 % 0.0 mm
01:01 18.5 °C 18.0 °C 1006.0 hPa Calm     95 % 0.0 mm
01:02 18.4 °C 18.0 °C 1006.0 hPa Calm     95 % 0.0 mm
01:07 18.3 °C 18.0 °C 1006.0 hPa Calm     95 % 0.0 mm
01:12 18.2 °C 18.0 °C 1006.0 hPa Calm     95 % 0.0 mm
01:14 18.1 °C 17.0 °C 1006.0 hPa Calm     95 % 0.0 mm
01:19 18.0 °C 17.0 °C 1006.0 hPa Calm     95 % 0.0 mm
01:24 17.8 °C 17.0 °C 1006.0 hPa Calm     95 % 0.0 mm
01:29 17.7 °C 17.0 °C 1006.0 hPa Calm     95 % 0.0 mm
01:34 17.7 °C 17.0 °C 1006.0 hPa Calm     96 % 0.0 mm
01:39 17.7 °C 17.0 °C 1006.0 hPa Calm     96 % 0.0 mm
01:44 17.6 °C 17.0 °C 1005.0 hPa Calm     96 % 0.0 mm
01:49 17.5 °C 17.0 °C 1005.0 hPa Calm     96 % 0.0 mm
01:54 17.5 °C 17.0 °C 1005.0 hPa Calm     96 % 0.0 mm
01:59 17.5 °C 17.0 °C 1006.0 hPa Calm     96 % 0.0 mm
02:04 17.4 °C 17.0 °C 1006.0 hPa Calm     96 % 0.0 mm
02:09 17.3 °C 17.0 °C 1006.0 hPa Calm     96 % 0.0 mm
02:14 17.2 °C 17.0 °C 1005.0 hPa Calm     96 % 0.0 mm
02:19 17.1 °C 17.0 °C 1005.0 hPa Calm     96 % 0.0 mm
02:24 17.1 °C 17.0 °C 1005.0 hPa Calm     96 % 0.0 mm
02:29 17.2 °C 17.0 °C 1005.0 hPa SSW 6.9 km/h 6.9 km/h 96 % 0.0 mm
02:35 17.5 °C 17.0 °C 1005.0 hPa SSW 3.2 km/h 6.9 km/h 97 % 0.0 mm
02:40 17.7 °C 17.0 °C 1005.0 hPa Calm   10.1 km/h 97 % 0.0 mm
02:45 17.8 °C 17.0 °C 1003.9 hPa Calm   10.1 km/h 97 % 0.0 mm
02:50 17.8 °C 17.0 °C 1003.9 hPa Calm   5.8 km/h 96 % 0.0 mm
02:55 17.7 °C 17.0 °C 1003.9 hPa Calm   3.5 km/h 96 % 0.0 mm
03:00 17.8 °C 17.0 °C 1005.0 hPa SSW 6.1 km/h 6.1 km/h 96 % 0.0 mm
03:05 17.9 °C 18.0 °C 1005.0 hPa SW 5.8 km/h 7.9 km/h 96 % 0.0 mm
03:10 18.0 °C 18.0 °C 1005.0 hPa Calm   8.7 km/h 96 % 0.0 mm
03:15 18.2 °C 18.0 °C 1006.0 hPa SSW 5.8 km/h 8.7 km/h 96 % 0.0 mm
03:20 18.4 °C 18.0 °C 1006.0 hPa Calm   10.1 km/h 95 % 0.0 mm
03:25 18.5 °C 18.0 °C 1005.0 hPa South 6.9 km/h 10.1 km/h 95 % 0.0 mm
03:30 18.7 °C 18.0 °C 1005.0 hPa SW 4.7 km/h 10.5 km/h 94 % 0.0 mm
03:35 18.8 °C 18.0 °C 1005.0 hPa SSW 6.9 km/h 13.7 km/h 94 % 0.0 mm
03:40 18.8 °C 18.0 °C 1005.0 hPa SSW 6.1 km/h 13.7 km/h 93 % 0.0 mm
03:45 18.9 °C 18.0 °C 1005.0 hPa SSW 6.9 km/h 10.1 km/h 92 % 0.0 mm
03:50 18.9 °C 18.0 °C 1005.0 hPa SSW 10.1 km/h 12.6 km/h 92 % 0.0 mm
03:55 19.0 °C 18.0 °C 1005.0 hPa South 8.7 km/h 12.6 km/h 91 % 0.0 mm
04:01 19.1 °C 17.0 °C 1005.0 hPa SSW 13.0 km/h 13.0 km/h 90 % 0.0 mm
04:06 19.2 °C 18.0 °C 1005.0 hPa SW 10.1 km/h 13.0 km/h 90 % 0.0 mm
04:11 19.3 °C 18.0 °C 1005.0 hPa SW 9.3 km/h 14.0 km/h 89 % 0.0 mm
04:16 19.3 °C 17.0 °C 1005.0 hPa SSW 10.5 km/h 14.0 km/h 88 % 0.0 mm
04:21 19.3 °C 17.0 °C 1005.0 hPa SW 3.2 km/h 10.5 km/h 88 % 0.0 mm
04:26 19.2 °C 17.0 °C 1005.0 hPa SSW 9.3 km/h 14.0 km/h 87 % 0.0 mm
04:31 19.2 °C 17.0 °C 1005.0 hPa WSW 5.8 km/h 14.0 km/h 87 % 0.0 mm
04:36 19.3 °C 17.0 °C 1005.0 hPa WSW 10.5 km/h 14.3 km/h 86 % 0.0 mm
04:41 19.2 °C 17.0 °C 1005.0 hPa West 7.6 km/h 14.3 km/h 86 % 0.0 mm
04:46 19.1 °C 17.0 °C 1005.0 hPa WSW 9.3 km/h 12.6 km/h 85 % 0.0 mm
04:51 19.1 °C 17.0 °C 1005.0 hPa SSW 8.7 km/h 13.0 km/h 85 % 0.0 mm
04:56 19.1 °C 17.0 °C 1005.0 hPa SSW 9.7 km/h 16.9 km/h 85 % 0.0 mm
05:01 19.1 °C 17.0 °C 1005.0 hPa SW 11.9 km/h 17.2 km/h 85 % 0.0 mm
05:06 19.1 °C 16.0 °C 1005.0 hPa SW 9.7 km/h 17.2 km/h 84 % 0.0 mm
05:11 19.1 °C 16.0 °C 1005.0 hPa SW 12.6 km/h 21.2 km/h 83 % 0.0 mm
05:17 19.1 °C 16.0 °C 1005.0 hPa SW 6.4 km/h 21.2 km/h 83 % 0.0 mm
05:22 19.0 °C 16.0 °C 1005.0 hPa WSW 11.9 km/h 16.9 km/h 82 % 0.0 mm
05:27 19.0 °C 16.0 °C 1003.9 hPa SW 8.7 km/h 16.6 km/h 82 % 0.0 mm
05:32 19.1 °C 16.0 °C 1003.9 hPa SSW 6.1 km/h 16.6 km/h 82 % 0.0 mm
05:37 19.1 °C 16.0 °C 1003.9 hPa WSW 6.4 km/h 13.0 km/h 82 % 0.0 mm
05:42 19.1 °C 16.0 °C 1003.9 hPa South 4.7 km/h 12.6 km/h 82 % 0.0 mm
05:47 19.2 °C 16.0 °C 1003.9 hPa SW 12.2 km/h 16.9 km/h 83 % 0.0 mm
05:52 19.2 °C 16.0 °C 1003.9 hPa SSW 6.9 km/h 16.9 km/h 83 % 0.0 mm
05:57 19.3 °C 16.0 °C 1003.9 hPa South 4.7 km/h 9.7 km/h 83 % 0.0 mm
06:02 19.3 °C 17.0 °C 1003.9 hPa SSW 7.9 km/h 11.6 km/h 84 % 0.0 mm
06:07 19.3 °C 17.0 °C 1003.9 hPa WSW 6.9 km/h 12.6 km/h 84 % 0.0 mm
06:12 19.4 °C 17.0 °C 1002.9 hPa SSW 16.9 km/h 16.9 km/h 84 % 0.0 mm
06:17 19.4 °C 17.0 °C 1002.9 hPa South 17.2 km/h 18.0 km/h 84 % 0.0 mm
06:22 19.6 °C 17.0 °C 1002.9 hPa SSW 4.3 km/h 18.0 km/h 84 % 0.0 mm
06:27 19.6 °C 17.0 °C 1002.9 hPa SW 14.0 km/h 16.6 km/h 83 % 0.0 mm
06:32 19.7 °C 17.0 °C 1002.9 hPa South 7.6 km/h 14.0 km/h 83 % 0.0 mm
06:37 19.7 °C 17.0 °C 1002.9 hPa SSW 5.5 km/h 14.0 km/h 83 % 0.0 mm
06:42 19.7 °C 17.0 °C 1002.9 hPa SSW 7.9 km/h 15.4 km/h 83 % 0.0 mm
06:47 19.7 °C 17.0 °C 1002.9 hPa West 6.4 km/h 15.4 km/h 83 % 0.0 mm
06:52 19.8 °C 17.0 °C 1002.9 hPa SW 11.6 km/h 17.7 km/h 83 % 0.0 mm
06:57 19.8 °C 17.0 °C 1002.9 hPa West 10.1 km/h 17.7 km/h 83 % 0.0 mm
07:02 19.8 °C 17.0 °C 1002.9 hPa SSW 9.3 km/h 17.7 km/h 83 % 0.0 mm
07:07 19.9 °C 17.0 °C 1002.9 hPa West 6.1 km/h 17.7 km/h 82 % 0.0 mm
07:12 20.0 °C 17.0 °C 1002.9 hPa SSW 6.4 km/h 16.3 km/h 82 % 0.0 mm
07:17 20.1 °C 17.0 °C 1002.9 hPa South 12.2 km/h 15.8 km/h 82 % 0.0 mm
07:22 20.1 °C 17.0 °C 1002.9 hPa SW 10.5 km/h 17.7 km/h 82 % 0.0 mm
07:27 20.1 °C 17.0 °C 1002.9 hPa SW 9.3 km/h 20.9 km/h 82 % 0.0 mm
07:32 20.2 °C 17.0 °C 1002.9 hPa SW 8.7 km/h 20.9 km/h 82 % 0.0 mm
07:37 20.3 °C 17.0 °C 1002.9 hPa SSW 12.6 km/h 20.6 km/h 82 % 0.0 mm
07:42 20.5 °C 18.0 °C 1002.9 hPa SW 9.7 km/h 19.5 km/h 82 % 0.0 mm
07:47 21.0 °C 18.0 °C 1002.9 hPa SSW 7.9 km/h 19.5 km/h 81 % 0.0 mm
07:52 21.1 °C 18.0 °C 1002.9 hPa SSW 7.9 km/h 19.5 km/h 81 % 0.0 mm
07:58 21.2 °C 18.0 °C 1002.9 hPa WSW 21.2 km/h 21.2 km/h 80 % 0.0 mm
08:03 21.2 °C 18.0 °C 1002.9 hPa WSW 19.5 km/h 21.2 km/h 79 % 0.0 mm
08:08 21.1 °C 17.0 °C 1002.9 hPa SSW 15.8 km/h 23.8 km/h 78 % 0.0 mm
08:13 21.1 °C 17.0 °C 1002.9 hPa SW 15.4 km/h 23.8 km/h 78 % 0.0 mm
08:18 21.3 °C 17.0 °C 1002.9 hPa West 11.9 km/h 19.8 km/h 77 % 0.0 mm
08:23 21.4 °C 17.0 °C 1002.9 hPa SSW 9.7 km/h 20.1 km/h 77 % 0.0 mm
08:28 21.4 °C 17.0 °C 1002.9 hPa WSW 26.7 km/h 27.0 km/h 75 % 0.0 mm
08:33 21.4 °C 17.0 °C 1002.9 hPa SSW 14.0 km/h 27.0 km/h 74 % 0.0 mm
08:38 21.4 °C 16.0 °C 1002.9 hPa SW 11.9 km/h 28.5 km/h 72 % 0.0 mm
08:43 21.3 °C 16.0 °C 1003.9 hPa WSW 22.4 km/h 28.5 km/h 72 % 0.0 mm
08:48 21.5 °C 17.0 °C 1003.9 hPa SSW 9.3 km/h 23.8 km/h 72 % 0.0 mm
08:53 21.5 °C 16.0 °C 1003.9 hPa WSW 17.7 km/h 28.8 km/h 70 % 0.0 mm
08:58 21.6 °C 16.0 °C 1003.9 hPa SW 9.0 km/h 28.8 km/h 70 % 0.0 mm
09:03 21.4 °C 15.0 °C 1003.9 hPa WSW 16.3 km/h 25.3 km/h 69 % 0.0 mm
09:08 21.2 °C 15.0 °C 1003.9 hPa West 20.1 km/h 24.8 km/h 69 % 0.0 mm
09:13 21.2 °C 15.0 °C 1005.0 hPa WSW 24.8 km/h 30.6 km/h 69 % 0.0 mm
09:18 21.1 °C 15.0 °C 1005.0 hPa WSW 16.6 km/h 35.6 km/h 69 % 0.0 mm
09:23 21.4 °C 15.0 °C 1005.0 hPa SW 16.6 km/h 35.6 km/h 69 % 0.0 mm
09:28 21.5 °C 16.0 °C 1005.0 hPa SW 16.3 km/h 27.7 km/h 70 % 0.0 mm
09:33 21.4 °C 15.0 °C 1005.0 hPa SW 29.1 km/h 29.1 km/h 69 % 0.0 mm
09:38 21.4 °C 15.0 °C 1005.0 hPa WSW 28.8 km/h 31.4 km/h 69 % 0.0 mm
09:43 20.5 °C 17.0 °C 1005.0 hPa WSW 23.0 km/h 41.0 km/h 77 % 0.0 mm
09:49 19.9 °C 17.0 °C 1005.0 hPa WSW 19.8 km/h 41.0 km/h 81 % 0.0 mm
09:54 19.7 °C 17.0 °C 1005.0 hPa West 20.9 km/h 27.7 km/h 83 % 0.0 mm
09:59 19.6 °C 17.0 °C 1005.0 hPa WSW 20.1 km/h 27.7 km/h 84 % 0.0 mm
10:04 19.6 °C 17.0 °C 1005.0 hPa WSW 12.6 km/h 26.7 km/h 86 % 0.0 mm
10:09 19.6 °C 17.0 °C 1005.0 hPa WSW 20.9 km/h 26.2 km/h 86 % 0.0 mm
10:14 19.8 °C 17.0 °C 1005.0 hPa WSW 12.2 km/h 24.8 km/h 85 % 0.0 mm
10:19 20.2 °C 18.0 °C 1005.0 hPa WSW 16.9 km/h 23.8 km/h 84 % 0.0 mm
10:24 19.9 °C 17.0 °C 1005.0 hPa SW 13.7 km/h 36.4 km/h 84 % 0.0 mm
10:29 20.0 °C 18.0 °C 1005.0 hPa WSW 22.4 km/h 36.4 km/h 85 % 0.0 mm
10:34 20.4 °C 17.0 °C 1005.0 hPa SW 16.9 km/h 28.0 km/h 83 % 0.0 mm
10:36 20.5 °C 17.0 °C 1005.0 hPa WSW 23.8 km/h 39.6 km/h 81 % 0.0 mm
10:41 20.7 °C 17.0 °C 1006.0 hPa West 20.6 km/h 39.6 km/h 80 % 0.0 mm
10:46 20.9 °C 17.0 °C 1006.0 hPa WSW 33.5 km/h 36.7 km/h 78 % 0.0 mm
10:51 20.9 °C 17.0 °C 1006.0 hPa WSW 32.0 km/h 39.3 km/h 77 % 0.0 mm
10:56 21.2 °C 17.0 °C 1006.0 hPa WSW 32.0 km/h 39.3 km/h 76 % 0.0 mm
11:01 21.4 °C 17.0 °C 1006.0 hPa West 32.3 km/h 36.0 km/h 76 % 0.0 mm
11:06 21.6 °C 17.0 °C 1006.0 hPa WSW 27.4 km/h 32.3 km/h 75 % 0.0 mm
11:11 21.2 °C 17.0 °C 1007.0 hPa WSW 16.9 km/h 30.2 km/h 75 % 0.0 mm
11:16 21.1 °C 16.0 °C 1007.0 hPa WSW 21.2 km/h 30.2 km/h 74 % 0.0 mm
11:21 21.4 °C 17.0 °C 1007.0 hPa WSW 14.0 km/h 31.7 km/h 74 % 0.0 mm
11:26 21.7 °C 16.0 °C 1007.0 hPa WSW 27.7 km/h 37.5 km/h 71 % 0.0 mm
11:31 21.9 °C 16.0 °C 1007.0 hPa WSW 29.9 km/h 37.5 km/h 70 % 0.0 mm
11:36 21.9 °C 17.0 °C 1007.0 hPa WSW 20.1 km/h 36.0 km/h 72 % 0.0 mm
11:41 21.7 °C 16.0 °C 1007.0 hPa SW 21.9 km/h 31.4 km/h 71 % 0.0 mm
11:46 22.3 °C 17.0 °C 1007.0 hPa West 24.5 km/h 29.1 km/h 71 % 0.0 mm
11:51 22.2 °C 17.0 °C 1007.0 hPa West 16.3 km/h 31.7 km/h 70 % 0.0 mm
11:56 22.3 °C 17.0 °C 1007.0 hPa West 31.7 km/h 31.7 km/h 71 % 0.0 mm
12:01 22.2 °C 17.0 °C 1007.0 hPa West 26.2 km/h 36.0 km/h 72 % 0.0 mm
12:06 20.6 °C 17.0 °C 1007.0 hPa WSW 19.8 km/h 41.0 km/h 78 % 0.3 mm
12:11 20.3 °C 17.0 °C 1007.0 hPa WSW 17.7 km/h 41.0 km/h 83 % 0.3 mm
12:17 20.9 °C 19.0 °C 1007.0 hPa WSW 22.7 km/h 30.9 km/h 86 % 0.3 mm
12:22 21.0 °C 18.0 °C 1007.0 hPa WSW 13.7 km/h 24.5 km/h 84 % 0.3 mm
12:27 20.9 °C 19.0 °C 1007.0 hPa SSW 20.6 km/h 22.7 km/h 85 % 0.3 mm
12:32 21.2 °C 18.0 °C 1007.0 hPa WSW 20.6 km/h 32.0 km/h 81 % 0.3 mm
12:37 21.2 °C 18.0 °C 1007.0 hPa WSW 29.1 km/h 32.0 km/h 79 % 0.3 mm
12:42 20.8 °C 16.0 °C 1007.0 hPa West 13.0 km/h 31.4 km/h 76 % 0.3 mm
12:47 21.1 °C 16.0 °C 1007.0 hPa WSW 32.8 km/h 35.2 km/h 73 % 0.3 mm
12:52 21.5 °C 16.0 °C 1007.0 hPa WSW 23.0 km/h 41.7 km/h 71 % 0.3 mm
12:57 21.6 °C 17.0 °C 1007.0 hPa WSW 25.3 km/h 41.7 km/h 72 % 0.3 mm
13:02 21.3 °C 16.0 °C 1007.0 hPa SSW 17.7 km/h 36.7 km/h 72 % 0.3 mm
13:07 21.7 °C 17.0 °C 1007.0 hPa SW 17.7 km/h 35.2 km/h 72 % 0.0 mm
13:12 21.8 °C 16.0 °C 1008.0 hPa WSW 32.3 km/h 32.3 km/h 70 % 0.0 mm
13:17 22.1 °C 16.0 °C 1008.0 hPa WSW 13.0 km/h 32.3 km/h 67 % 0.0 mm
13:22 22.0 °C 15.0 °C 1008.0 hPa West 20.6 km/h 32.3 km/h 65 % 0.0 mm
13:27 22.2 °C 16.0 °C 1008.0 hPa WSW 24.8 km/h 31.7 km/h 66 % 0.0 mm
13:32 22.4 °C 15.0 °C 1008.0 hPa West 28.5 km/h 36.0 km/h 64 % 0.0 mm
13:37 22.3 °C 15.0 °C 1008.0 hPa WSW 24.8 km/h 37.5 km/h 62 % 0.0 mm
13:42 22.1 °C 14.0 °C 1009.0 hPa West 30.6 km/h 42.8 km/h 61 % 0.0 mm
13:47 22.1 °C 15.0 °C 1009.0 hPa WSW 22.7 km/h 42.8 km/h 63 % 0.0 mm
13:52 22.5 °C 15.0 °C 1009.0 hPa WSW 28.5 km/h 30.6 km/h 62 % 0.0 mm
13:57 22.3 °C 14.0 °C 1010.0 hPa WSW 33.8 km/h 37.0 km/h 58 % 0.0 mm
14:02 22.2 °C 14.0 °C 1010.0 hPa WSW 28.5 km/h 37.0 km/h 58 % 0.0 mm
14:07 22.1 °C 14.0 °C 1010.0 hPa West 33.1 km/h 36.0 km/h 60 % 0.0 mm
14:12 22.2 °C 14.0 °C 1009.0 hPa WSW 24.8 km/h 34.6 km/h 61 % 0.0 mm
14:17 22.8 °C 15.0 °C 1009.0 hPa WSW 31.4 km/h 36.7 km/h 61 % 0.0 mm
14:22 22.8 °C 14.0 °C 1009.0 hPa West 27.7 km/h 39.3 km/h 59 % 0.0 mm
14:27 23.3 °C 15.0 °C 1009.0 hPa West 19.8 km/h 39.3 km/h 58 % 0.0 mm
14:32 23.2 °C 14.0 °C 1009.0 hPa WSW 27.7 km/h 35.6 km/h 57 % 0.0 mm
14:37 22.6 °C 13.0 °C 1009.0 hPa WSW 24.8 km/h 35.6 km/h 56 % 0.0 mm
14:43 23.0 °C 13.0 °C 1009.0 hPa WSW 23.0 km/h 37.8 km/h 55 % 0.0 mm
14:48 22.7 °C 13.0 °C 1009.0 hPa WSW 21.2 km/h 37.8 km/h 55 % 0.0 mm
14:53 23.2 °C 13.0 °C 1009.0 hPa West 27.0 km/h 31.7 km/h 53 % 0.0 mm
14:58 22.6 °C 13.0 °C 1009.0 hPa West 20.1 km/h 31.7 km/h 54 % 0.0 mm
15:08 23.3 °C 13.0 °C 1009.0 hPa WSW 24.5 km/h 38.5 km/h 50 % 0.0 mm
15:13 23.0 °C 12.0 °C 1010.0 hPa West 17.2 km/h 38.5 km/h 49 % 0.0 mm
15:23 23.3 °C 12.0 °C 1010.0 hPa West 32.0 km/h 37.0 km/h 48 % 0.0 mm
15:28 23.5 °C 13.0 °C 1010.0 hPa WSW 28.8 km/h 36.7 km/h 49 % 0.0 mm
15:33 23.4 °C 12.0 °C 1010.0 hPa WSW 20.1 km/h 31.7 km/h 49 % 0.0 mm
15:38 23.2 °C 12.0 °C 1010.0 hPa WSW 16.3 km/h 31.7 km/h 48 % 0.0 mm
15:43 23.0 °C 12.0 °C 1010.0 hPa West 21.6 km/h 31.7 km/h 48 % 0.0 mm
15:49 22.8 °C 12.0 °C 1010.0 hPa West 23.3 km/h 30.9 km/h 49 % 0.0 mm
15:54 23.4 °C 12.0 °C 1010.0 hPa West 24.5 km/h 32.0 km/h 48 % 0.0 mm
15:59 23.5 °C 12.0 °C 1010.0 hPa WSW 17.7 km/h 33.8 km/h 47 % 0.0 mm
16:04 23.7 °C 12.0 °C 1010.0 hPa WSW 23.3 km/h 33.8 km/h 46 % 0.0 mm
16:09 23.4 °C 12.0 °C 1010.0 hPa WSW 17.7 km/h 32.0 km/h 47 % 0.0 mm
16:14 23.0 °C 12.0 °C 1010.0 hPa West 17.2 km/h 28.5 km/h 48 % 0.0 mm
16:19 22.8 °C 11.0 °C 1010.0 hPa WSW 14.0 km/h 25.3 km/h 48 % 0.0 mm
16:24 22.7 °C 11.0 °C 1010.0 hPa WSW 14.0 km/h 29.9 km/h 48 % 0.0 mm
16:29 22.8 °C 11.0 °C 1010.0 hPa WSW 16.3 km/h 40.7 km/h 46 % 0.0 mm
16:34 23.0 °C 11.0 °C 1010.0 hPa WSW 31.7 km/h 40.7 km/h 47 % 0.0 mm
16:39 23.4 °C 11.0 °C 1010.0 hPa West 31.4 km/h 37.0 km/h 46 % 0.0 mm
16:44 23.5 °C 12.0 °C 1010.0 hPa West 16.3 km/h 37.0 km/h 46 % 0.0 mm
16:49 23.4 °C 11.0 °C 1010.0 hPa SW 17.2 km/h 36.7 km/h 46 % 0.0 mm
16:54 23.4 °C 11.0 °C 1010.0 hPa WSW 25.9 km/h 38.5 km/h 45 % 0.0 mm
16:59 23.4 °C 11.0 °C 1010.0 hPa West 16.6 km/h 38.5 km/h 46 % 0.0 mm
17:00 23.1 °C 11.0 °C 1010.0 hPa WSW 13.7 km/h 38.5 km/h 46 % 0.0 mm
17:05 23.4 °C 11.0 °C 1010.0 hPa WSW 19.8 km/h 36.4 km/h 44 % 0.0 mm
17:10 23.5 °C 10.0 °C 1010.0 hPa West 24.8 km/h 35.2 km/h 43 % 0.0 mm
17:15 23.6 °C 10.0 °C 1010.0 hPa SSW 14.0 km/h 32.3 km/h 43 % 0.0 mm
17:20 23.7 °C 10.0 °C 1010.0 hPa WSW 24.8 km/h 30.9 km/h 42 % 0.0 mm
17:25 23.5 °C 10.0 °C 1010.0 hPa West 17.7 km/h 33.1 km/h 41 % 0.0 mm
17:30 23.5 °C 10.0 °C 1010.0 hPa West 23.8 km/h 33.1 km/h 41 % 0.0 mm
17:35 23.5 °C 9.0 °C 1010.0 hPa WSW 16.6 km/h 30.9 km/h 40 % 0.0 mm
17:40 23.6 °C 10.0 °C 1010.0 hPa SSW 14.0 km/h 27.7 km/h 41 % 0.0 mm
17:45 23.8 °C 9.0 °C 1010.0 hPa WSW 19.1 km/h 28.8 km/h 40 % 0.0 mm
17:50 23.7 °C 9.0 °C 1010.0 hPa West 12.2 km/h 28.8 km/h 40 % 0.0 mm
17:54 23.5 °C 9.0 °C 1010.0 hPa WSW 20.6 km/h 31.7 km/h 38 % 0.0 mm
17:59 23.5 °C 9.0 °C 1010.0 hPa WSW 22.7 km/h 31.7 km/h 39 % 0.0 mm
18:04 23.2 °C 8.0 °C 1010.0 hPa West 16.3 km/h 32.3 km/h 38 % 0.0 mm
18:09 23.3 °C 9.0 °C 1010.0 hPa West 19.1 km/h 32.3 km/h 39 % 0.0 mm
18:14 23.3 °C 8.0 °C 1010.0 hPa WSW 16.3 km/h 26.2 km/h 38 % 0.0 mm
18:19 23.1 °C 8.0 °C 1010.0 hPa WSW 16.9 km/h 27.4 km/h 38 % 0.0 mm
18:24 23.1 °C 9.0 °C 1010.0 hPa West 23.3 km/h 27.4 km/h 40 % 0.0 mm
18:29 23.1 °C 9.0 °C 1011.1 hPa West 17.7 km/h 28.0 km/h 40 % 0.0 mm
18:34 23.0 °C 9.0 °C 1011.1 hPa WSW 12.6 km/h 28.0 km/h 41 % 0.0 mm
18:39 22.9 °C 9.0 °C 1011.1 hPa West 20.1 km/h 26.2 km/h 42 % 0.0 mm
18:44 22.7 °C 9.0 °C 1010.0 hPa SW 17.2 km/h 28.5 km/h 42 % 0.0 mm
18:49 22.7 °C 9.0 °C 1010.0 hPa West 16.9 km/h 28.5 km/h 43 % 0.0 mm
18:55 22.5 °C 9.0 °C 1010.0 hPa West 16.6 km/h 23.0 km/h 43 % 0.0 mm
19:00 22.5 °C 10.0 °C 1011.1 hPa WSW 9.7 km/h 24.8 km/h 44 % 0.0 mm
19:05 22.4 °C 10.0 °C 1011.1 hPa West 16.3 km/h 24.8 km/h 44 % 0.0 mm
19:10 22.3 °C 10.0 °C 1011.1 hPa WSW 16.3 km/h 24.5 km/h 44 % 0.0 mm
19:15 22.3 °C 9.0 °C 1011.1 hPa West 9.0 km/h 23.8 km/h 43 % 0.0 mm
19:20 22.2 °C 9.0 °C 1011.1 hPa WSW 11.9 km/h 24.5 km/h 43 % 0.0 mm
19:25 22.1 °C 9.0 °C 1011.1 hPa West 12.2 km/h 26.2 km/h 43 % 0.0 mm
19:31 22.1 °C 9.0 °C 1011.1 hPa WSW 8.7 km/h 26.2 km/h 44 % 0.0 mm
19:36 22.0 °C 9.0 °C 1011.1 hPa WSW 13.0 km/h 23.0 km/h 44 % 0.0 mm
19:41 21.8 °C 9.0 °C 1011.1 hPa West 11.9 km/h 23.0 km/h 45 % 0.0 mm
19:46 21.8 °C 10.0 °C 1011.1 hPa West 14.8 km/h 20.9 km/h 46 % 0.0 mm
19:51 21.8 °C 10.0 °C 1011.1 hPa West 9.7 km/h 18.0 km/h 46 % 0.0 mm
19:56 21.8 °C 10.0 °C 1011.1 hPa West 7.9 km/h 19.5 km/h 46 % 0.0 mm
20:01 21.7 °C 10.0 °C 1011.1 hPa West 6.1 km/h 19.5 km/h 46 % 0.0 mm
20:06 21.2 °C 9.0 °C 1011.1 hPa West 6.1 km/h 17.2 km/h 46 % 0.0 mm
20:11 20.8 °C 9.0 °C 1011.1 hPa West 9.0 km/h 17.2 km/h 48 % 0.0 mm
20:16 20.8 °C 9.0 °C 1011.1 hPa WSW 10.5 km/h 16.9 km/h 48 % 0.0 mm
20:21 20.5 °C 10.0 °C 1011.1 hPa WSW 9.0 km/h 16.9 km/h 49 % 0.0 mm
20:26 20.2 °C 10.0 °C 1011.1 hPa WSW 13.7 km/h 14.3 km/h 51 % 0.0 mm
20:27 20.1 °C 10.0 °C 1011.1 hPa West 9.0 km/h 14.3 km/h 51 % 0.0 mm
20:32 19.9 °C 10.0 °C 1011.1 hPa West 6.9 km/h 16.6 km/h 52 % 0.0 mm
20:37 19.7 °C 10.0 °C 1011.1 hPa West 5.0 km/h 16.6 km/h 53 % 0.0 mm
20:43 19.5 °C 10.0 °C 1011.1 hPa West 5.5 km/h 12.2 km/h 55 % 0.0 mm
20:48 19.4 °C 10.0 °C 1011.1 hPa West 9.3 km/h 13.7 km/h 55 % 0.0 mm
20:49 19.3 °C 10.0 °C 1011.1 hPa West 5.8 km/h 13.7 km/h 55 % 0.0 mm
20:54 19.2 °C 10.0 °C 1011.1 hPa West 9.0 km/h 12.2 km/h 56 % 0.0 mm
20:59 19.1 °C 10.0 °C 1011.1 hPa WSW 5.0 km/h 13.7 km/h 56 % 0.0 mm
21:04 18.8 °C 10.0 °C 1011.1 hPa WSW 5.8 km/h 13.7 km/h 57 % 0.0 mm
21:09 18.6 °C 10.0 °C 1011.1 hPa Calm   7.9 km/h 58 % 0.0 mm
21:14 18.4 °C 10.0 °C 1012.1 hPa West 5.5 km/h 7.9 km/h 59 % 0.0 mm
21:19 18.2 °C 10.0 °C 1012.1 hPa West 1.4 km/h 6.4 km/h 59 % 0.0 mm
21:25 18.0 °C 10.0 °C 1012.1 hPa Calm   7.9 km/h 60 % 0.0 mm
21:30 17.9 °C 11.0 °C 1010.0 hPa Calm   7.9 km/h 62 % 0.0 mm
21:35 17.6 °C 10.0 °C 1010.0 hPa West 6.9 km/h 276.7 km/h 62 % 0.0 mm
21:37 17.6 °C 11.0 °C 1010.0 hPa West 9.0 km/h 276.7 km/h 63 % 0.0 mm
21:42 17.5 °C 11.0 °C 1011.1 hPa Calm   9.3 km/h 64 % 0.0 mm
21:47 17.3 °C 11.0 °C 1011.1 hPa West 6.1 km/h 8.7 km/h 65 % 0.0 mm
21:52 17.2 °C 11.0 °C 1011.1 hPa Calm   8.7 km/h 65 % 0.0 mm
21:57 17.0 °C 11.0 °C 1011.1 hPa West 32.0 km/h 32.0 km/h 66 % 0.0 mm
22:02 16.7 °C 11.0 °C 1011.1 hPa Calm   32.0 km/h 67 % 0.0 mm
22:07 16.6 °C 11.0 °C 1011.1 hPa Calm   2.1 km/h 67 % 0.0 mm
22:10 16.5 °C 11.0 °C 1011.1 hPa Calm     68 % 0.0 mm
22:15 16.3 °C 11.0 °C 1011.1 hPa Calm     69 % 0.0 mm
22:20 16.1 °C 10.0 °C 1011.1 hPa Calm     69 % 0.0 mm
22:25 16.0 °C 11.0 °C 1010.0 hPa Calm   3.5 km/h 70 % 0.0 mm
22:31 15.9 °C 11.0 °C 1010.0 hPa Calm   3.5 km/h 71 % 0.0 mm
22:36 15.9 °C 11.0 °C 1010.0 hPa Calm     72 % 0.0 mm
22:41 15.8 °C 11.0 °C 1011.1 hPa Calm     72 % 0.0 mm
22:46 15.7 °C 11.0 °C 1011.1 hPa Calm     73 % 0.0 mm
22:51 15.6 °C 11.0 °C 1011.1 hPa Calm     73 % 0.0 mm
22:56 15.6 °C 11.0 °C 1011.1 hPa Calm     73 % 0.0 mm
23:01 15.4 °C 11.0 °C 1011.1 hPa Calm     73 % 0.0 mm
23:06 15.3 °C 11.0 °C 1011.1 hPa Calm     74 % 0.0 mm
23:11 15.1 °C 11.0 °C 1011.1 hPa Calm     74 % 0.0 mm
23:16 14.9 °C 11.0 °C 1011.1 hPa Calm     75 % 0.0 mm
23:21 14.7 °C 11.0 °C 1011.1 hPa Calm     76 % 0.0 mm
23:26 14.5 °C 11.0 °C 1011.1 hPa Calm     77 % 0.0 mm
23:31 14.5 °C 11.0 °C 1011.1 hPa Calm     78 % 0.0 mm
23:36 14.5 °C 11.0 °C 1011.1 hPa Calm     79 % 0.0 mm
23:41 14.5 °C 12.0 °C 1010.0 hPa Calm     80 % 0.0 mm
23:46 14.6 °C 12.0 °C 1010.0 hPa Calm     80 % 0.0 mm
23:51 14.6 °C 12.0 °C 1010.0 hPa Calm     81 % 0.0 mm
23:56 14.7 °C 12.0 °C 1011.1 hPa Calm     81 % 0.0 mm
Le Gheer Warneton
Courtoisie de Weather Underground - 2.25 mb

Mise a jour : 18/12/2017 17:27:12
Généré par Cumulus 1.9.4 (1099)